Weather in Monte Gordo

Portugal     37°10′56″N   7°27′04″W
temp.,
°C
wind,
m/s
gust,
m/s
humid.,
%
clouds,
%
prec.,
mm/h
press.,
hPa
HPBL,
m
24 may, tue
tue2401:00+15nnw81463100 0.0 1013373
04:00+13nnw916705 0.0 1014459
07:00+12nnw815780 0.0 1014466
10:00+19nnw1012420 0.0 10151026
13:00+26nnw89209 0.0 10141786
16:00+28nnw9918100 0.0 10122224
19:00+24nnw91124100 0.0 10131654
22:00+18nnw1014475 0.0 1016590
25 may, wed
wed2501:00+14nnw8156396 0.0 1017442
04:00+13nnw81472100 0.0 1017359
07:00+13nnw71273100 0.0 1018321
10:00+20n6739100 0.0 1019643
13:00+25e2325100 0.0 10181993
16:00+28ssw141944 0.0 10162502
19:00+27ssw452471 0.0 1016764
22:00+21wnw223395 0.0 101715
26 may, thu
thu2601:00+18ne223650 0.0 101815
04:00+15ne125338 0.0 101811
07:00+16n226060 0.0 101922
10:00+25ene46240 0.0 1019832
13:00+29ese57195 0.0 10182019
16:00+30sse55205 0.0 10171438
19:00+25ssw673313 0.0 1017446
22:00+19wsw34495 0.0 101943
27 may, fri
fri2701:00+18sw33626 0.0 101925
04:00+15nw11705 0.0 101811
07:00+17ne346112 0.0 101958
10:00+25ese563311 0.0 1019672
13:00+29se67260 0.0 1018974
16:00+30sse66250 0.0 10161013
19:00+26s58340 0.0 1015464
22:00+19sw12650 0.0 101711
28 may, sat
sat2801:00+18ssw34730 0.0 101661
04:00+16wsw11845 0.0 101511
07:00+17ne12710 0.0 101517
10:00+25se69380 0.0 1015773
13:00+26s79450 0.0 1015787
16:00+27s66390 0.0 1013698
19:00+25ssw55367 0.0 1012436
22:00+18sw236532 0.0 101318